Patuxent River, MD

1:43 AM EST on February 20, 2018 (GMT -0500)
Patuxent River Naval Air Station

Weather History for KNHK - December, 2012

Change the Weather History Date:

Tuesday, December 25, 2012

  Actual Average Record
Temperature  
Mean Temperature 42 °F -  
Max Temperature 46 °F 47 °F 72 °F (1982)
Min Temperature 37 °F 28 °F 6 °F (1983)
Degree Days  
Heating Degree Days 24    
Moisture  
Dew Point 37 °F    
Average Humidity 80    
Maximum Humidity 89    
Minimum Humidity 68    
Precipitation  
Precipitation 0.00 in - - ()
Sea Level Pressure  
Sea Level Pressure 30.09 in    
Wind  
Wind Speed 6 mph (NNW)    
Max Wind Speed 14 mph    
Max Gust Speed -    
Visibility 9 miles    
Events      
Averages and records for this station are not official NWS values.
T = Trace of Precipitation, MM = Missing Value Source: NWS Daily Summary

Daily Weather History Graph

Daily Weather History Graph

Search for Another Location

Airport or City:

Trip Planner

Search our weather history database for the weather conditions in past years. The results will help you decide how hot, cold, wet, or windy it might be!

Date:

Astronomy

Dec. 25, 2012 Rise Set
Actual Time 7:20 AM EST 4:51 PM EST
Civil Twilight 6:51 AM EST 5:20 PM EST
Nautical Twilight 6:18 AM EST 5:54 PM EST
Astronomical Twilight 5:45 AM EST 6:26 PM EST
Moon 2:57 PM EST (12/25) 4:51 AM EST (12/25)
Length of Visible Light 10h 29m
Length of Day
9h 30m
Waxing Gibbous, 93% of the Moon is Illuminated
Dec 25
Waxing Gibbous
Dec 28
Full
Jan 4
Last Quarter
Jan 11
New
Jan 18
First Quarter

Hourly Weather History & Observations

Time (EST) Temp. Windchill Dew Point Humidity Pressure Visibility Wind Dir Wind Speed Gust Speed Precip Events Conditions
12:52 AM 43.0 °F - 39.9 °F 89% 29.90 in 5.0 mi Calm Calm - N/A   Overcast
1:34 AM 42.8 °F 39.3 °F 39.2 °F 87% 29.92 in 8.0 mi West 5.8 mph - N/A   Overcast
1:52 AM 43.0 °F 38.8 °F 39.9 °F 89% 29.92 in 9.0 mi WNW 6.9 mph - N/A   Overcast
2:08 AM 42.8 °F 38.6 °F 39.2 °F 87% 29.92 in 10.0 mi West 6.9 mph - N/A   Overcast
2:52 AM 43.0 °F 36.8 °F 39.0 °F 86% 29.96 in 10.0 mi West 11.5 mph - N/A   Overcast
3:52 AM 42.1 °F 38.4 °F 37.9 °F 85% 29.95 in 10.0 mi West 5.8 mph - N/A   Overcast
4:52 AM 41.0 °F 36.4 °F 37.9 °F 89% 29.97 in 10.0 mi West 6.9 mph - N/A   Overcast
5:52 AM 41.0 °F 36.4 °F 37.0 °F 86% 29.99 in 10.0 mi West 6.9 mph - N/A   Overcast
6:52 AM 41.0 °F 36.4 °F 37.0 °F 86% 30.03 in 7.0 mi NNW 6.9 mph - N/A   Overcast
7:52 AM 41.0 °F - 37.9 °F 89% 30.08 in 5.0 mi Calm Calm - N/A   Overcast
8:34 AM 41.0 °F 36.4 °F 37.4 °F 87% 30.09 in 5.0 mi NW 6.9 mph - N/A   Overcast
8:52 AM 41.0 °F 34.3 °F 37.9 °F 89% 30.10 in 6.0 mi NW 11.5 mph - N/A   Mostly Cloudy
9:16 AM 41.0 °F 35.8 °F 37.4 °F 87% 30.10 in 9.0 mi NW 8.1 mph - N/A   Mostly Cloudy
9:52 AM 42.1 °F 38.4 °F 37.9 °F 85% 30.12 in 10.0 mi North 5.8 mph - N/A   Mostly Cloudy
10:52 AM 43.0 °F 39.5 °F 36.0 °F 76% 30.12 in 10.0 mi North 5.8 mph - N/A   Mostly Cloudy
11:23 AM 44.6 °F 41.4 °F 37.4 °F 76% 30.12 in 10.0 mi North 5.8 mph - N/A   Scattered Clouds
11:52 AM 45.0 °F 41.2 °F 37.0 °F 74% 30.12 in 10.0 mi NW 6.9 mph - N/A   Mostly Cloudy
12:11 PM 46.4 °F 44.3 °F 37.4 °F 71% 30.11 in 10.0 mi North 4.6 mph - N/A   Mostly Cloudy
12:21 PM 44.6 °F 42.2 °F 37.4 °F 76% 30.11 in 10.0 mi NNW 4.6 mph - N/A   Scattered Clouds
12:52 PM 46.0 °F 41.0 °F 37.9 °F 73% 30.11 in 10.0 mi North 10.4 mph - N/A   Partly Cloudy
1:52 PM 46.0 °F 41.4 °F 37.0 °F 71% 30.10 in 10.0 mi NNE 9.2 mph - N/A   Clear
2:52 PM 46.9 °F - 37.0 °F 68% 30.11 in 10.0 mi North 6.9 mph - N/A   Clear
3:52 PM 45.0 °F - 36.0 °F 71% 30.15 in 10.0 mi Calm Calm - N/A   Clear
4:52 PM 44.1 °F 42.5 °F 36.0 °F 73% 30.16 in 10.0 mi NW 3.5 mph - N/A   Clear
5:52 PM 39.0 °F 36.8 °F 34.0 °F 82% 30.17 in 10.0 mi West 3.5 mph - N/A   Clear
6:52 PM 37.9 °F 35.5 °F 34.0 °F 86% 30.18 in 10.0 mi West 3.5 mph - N/A   Clear
7:52 PM 42.1 °F 34.9 °F 34.0 °F 73% 30.20 in 10.0 mi NNE 13.8 mph - N/A   Clear
8:52 PM 41.0 °F 35.2 °F 33.1 °F 73% 30.23 in 10.0 mi NNE 9.2 mph - N/A   Partly Cloudy
9:52 PM 41.0 °F 37.1 °F 33.1 °F 73% 30.22 in 10.0 mi NE 5.8 mph - N/A   Overcast
10:52 PM 41.0 °F 35.8 °F 32.0 °F 70% 30.23 in 10.0 mi NE 8.1 mph - N/A   Mostly Cloudy
11:52 PM 39.9 °F 35.1 °F 32.0 °F 73% 30.25 in 10.0 mi NE 6.9 mph - N/A   Mostly Cloudy